Location: Borotín
(49.5055°N, 14.6142°E)
Time: 12:11:18
(UTC+00:00)

Meteor 1-21 Rocket - Pass Details

Date: 27 May 2022
Orbit: 833 x 907 km, 81.2° (Epoch: 27 June)

Event Time Altitude Azimuth Distance (km) Brightness Sun altitude
Exits shadow 01:45:35 - 186° (S) 2,696 6.3 -10.1°
Reaches altitude 10° 01:46:09 10° 186° (S) 2,480 6.1 -10.1°
Maximum altitude 01:51:46 82° 100° (E) 859 4.3 -9.5°
Drops below altitude 10° 01:57:21 10° 14° (NNE) 2,462 7.7 -8.9°
Sets 01:59:45 0° 13° (NNE) 3,397 8.6 -8.6°
